Wisconsin Dells, Wisconsin, United States (53965)
Lat: 43.63N, Lon: 89.77W
Wx Zone: WIZ057
Local Info
Past Weather Observations for Tuesday, September 20, 2016

NOTE: This archive is for the closest National Weather Service station to Wisconsin Dells. Information may differ from the station used for current weather conditions.

Click here for Long-term Archive

Time Weather Temperature Dewpoint Humidity Pressure Winds Precip Visibility
23:50
Mostly Cloudy
64°F / 18°C 46°F / 8°C 52% 30.09 in
(1019 mb)
Calm - 10SM
23:30
Clear
66°F / 19°C 45°F / 7°C 46% 30.09 in
(1019 mb)
Calm - 10SM
23:10
Clear
66°F / 19°C 45°F / 7°C 46% 30.09 in
(1019 mb)
SSE 3.5 mph
(SSE 6 kph)
- 10SM
22:50
Clear
66°F / 19°C 46°F / 8°C 49% 30.09 in
(1019 mb)
SE 5.8 mph
(SE 9 kph)
- 10SM
22:30
Partly Cloudy
68°F / 20°C 46°F / 8°C 46% 30.09 in
(1019 mb)
SE 5.8 mph
(SE 9 kph)
- 10SM
22:10
Clear
68°F / 20°C 48°F / 9°C 49% 30.09 in
(1019 mb)
SE 5.8 mph
(SE 9 kph)
- 10SM
21:50
Clear
68°F / 20°C 50°F / 10°C 53% 30.09 in
(1019 mb)
SE 6.9 mph
(SE 11 kph)
- 10SM
21:30
Clear
66°F / 19°C 50°F / 10°C 56% 30.12 in
(1020 mb)
SE 4.6 mph
(SE 7 kph)
- 10SM
21:10
Clear
66°F / 19°C 52°F / 11°C 60% 30.09 in
(1019 mb)
SE 5.8 mph
(SE 9 kph)
- 10SM
20:50
Partly Cloudy
64°F / 18°C 52°F / 11°C 64% 30.12 in
(1020 mb)
SE 5.8 mph
(SE 9 kph)
- 10SM
20:30
Partly Cloudy
64°F / 18°C 52°F / 11°C 64% 30.12 in
(1020 mb)
SE 3.5 mph
(SE 6 kph)
- 10SM
20:10
Partly Cloudy
64°F / 18°C 54°F / 12°C 68% 30.12 in
(1020 mb)
Calm - 10SM
19:50
Mostly Cloudy
64°F / 18°C 54°F / 12°C 68% 30.12 in
(1020 mb)
Calm - 10SM
19:30
Partly Cloudy
66°F / 19°C 54°F / 12°C 64% 30.12 in
(1020 mb)
SE 4.6 mph
(SE 7 kph)
- 10SM
19:10
Clear
63°F / 17°C 55°F / 13°C 77% 30.12 in
(1020 mb)
Calm - 10SM
18:50
Clear
63°F / 17°C 57°F / 14°C 83% 30.12 in
(1020 mb)
Calm - 10SM
18:30
Clear
64°F / 18°C 57°F / 14°C 78% 30.12 in
(1020 mb)
Calm - 10SM
18:10
Clear
66°F / 19°C 59°F / 15°C 78% 30.12 in
(1020 mb)
Calm - 10SM
17:50
Clear
68°F / 20°C 59°F / 15°C 73% 30.12 in
(1020 mb)
Calm - 10SM
17:30
Clear
73°F / 23°C 57°F / 14°C 57% 30.12 in
(1020 mb)
Calm - 10SM
17:10
Clear
77°F / 25°C 55°F / 13°C 47% 30.09 in
(1019 mb)
Calm - 10SM
16:50
Clear
77°F / 25°C 54°F / 12°C 44% 30.09 in
(1019 mb)
Calm - 10SM
16:30
Clear
77°F / 25°C 52°F / 11°C 42% 30.09 in
(1019 mb)
SE 3.5 mph
(SE 6 kph)
- 10SM
16:10
Clear
77°F / 25°C 52°F / 11°C 42% 30.06 in
(1018 mb)
SE 6.9 mph
(SE 11 kph)
- 10SM
15:50
Clear
77°F / 25°C 55°F / 13°C 47% 30.09 in
(1019 mb)
SSE 9.2 mph
(SSE 15 kph)
- 10SM
15:30
Clear
81°F / 27°C 52°F / 11°C 37% 30.12 in
(1020 mb)
SSE 8.1 mph
(SSE 13 kph)
- 10SM
15:10
Clear
81°F / 27°C 50°F / 10°C 34% 30.15 in
(1021 mb)
SSE 6.9 mph
(SSE 11 kph)
- 10SM
14:50
Clear
81°F / 27°C 50°F / 10°C 34% 30.15 in
(1021 mb)
SSE 5.8 mph
(SSE 9 kph)
- 10SM
14:30
Clear
81°F / 27°C 48°F / 9°C 32% 30.15 in
(1021 mb)
S 5.8 mph
(S 9 kph)
- 10SM
14:10
Clear
82°F / 28°C 50°F / 10°C 32% 30.15 in
(1021 mb)
SW 6.9 mph
(SW 11 kph)
- 10SM
13:50
Clear
82°F / 28°C 48°F / 9°C 30% 30.15 in
(1021 mb)
S 4.6 mph
(S 7 kph)
- 10SM
13:30
Clear
82°F / 28°C 52°F / 11°C 35% 30.15 in
(1021 mb)
SSE 4.6 mph
(SSE 7 kph)
- 10SM
13:10
Clear
82°F / 28°C 52°F / 11°C 35% 30.15 in
(1021 mb)
SSE 5.8 mph
(SSE 9 kph)
- 10SM
12:50
Clear
82°F / 28°C 54°F / 12°C 37% 30.15 in
(1021 mb)
SSE 5.8 mph
(SSE 9 kph)
- 10SM
12:30
Clear
81°F / 27°C 52°F / 11°C 37% 30.15 in
(1021 mb)
SSE 9.2 mph
(SSE 15 kph)
- 10SM
12:10
Clear
81°F / 27°C 52°F / 11°C 37% 30.15 in
(1021 mb)
S 9.2 mph
(S 15 kph)
- 10SM
11:50
Clear
79°F / 26°C 52°F / 11°C 39% 30.15 in
(1021 mb)
SSE 8.1 mph
(SSE 13 kph)
- 10SM
11:30
Clear
79°F / 26°C 52°F / 11°C 39% 30.18 in
(1022 mb)
S 8.1 mph
(S 13 kph)
- 10SM
11:10
Clear
79°F / 26°C 50°F / 10°C 37% 30.18 in
(1022 mb)
S 6.9 mph
(S 11 kph)
- 10SM
10:50
Clear
77°F / 25°C 48°F / 9°C 36% 30.18 in
(1022 mb)
SSE 6.9 mph
(SSE 11 kph)
- 10SM
10:10
Clear
77°F / 25°C 52°F / 11°C 42% 30.18 in
(1022 mb)
S 3.5 mph
(S 6 kph)
- 10SM
09:50
Clear
75°F / 24°C 50°F / 10°C 41% 30.18 in
(1022 mb)
S 5.8 mph
(S 9 kph)
- 10SM
09:30
Clear
73°F / 23°C 54°F / 12°C 50% 30.18 in
(1022 mb)
S 9.2 mph
(S 15 kph)
- 10SM
09:10
Clear
70°F / 21°C 57°F / 14°C 64% 30.18 in
(1022 mb)
S 5.8 mph
(S 9 kph)
- 10SM
08:50
Clear
68°F / 20°C 57°F / 14°C 69% 30.18 in
(1022 mb)
S 4.6 mph
(S 7 kph)
- 10SM
08:30
Clear
61°F / 16°C 61°F / 16°C 100% 30.18 in
(1022 mb)
Calm - 10SM
08:10
Clear
59°F / 15°C 59°F / 15°C 100% 30.18 in
(1022 mb)
Calm - 10SM
07:50
Clear
57°F / 14°C 57°F / 14°C 100% 30.18 in
(1022 mb)
Calm - 10SM
07:30
Clear
55°F / 13°C 55°F / 13°C 100% 30.15 in
(1021 mb)
Calm - 10SM
07:10
Clear
54°F / 12°C 54°F / 12°C 100% 30.15 in
(1021 mb)
Calm - 10SM
06:50
Clear
54°F / 12°C 52°F / 11°C 94% 30.15 in
(1021 mb)
Calm - 10SM
06:30
Clear
52°F / 11°C 50°F / 10°C 94% 30.15 in
(1021 mb)
Calm - 10SM
06:10
Clear
50°F / 10°C 50°F / 10°C 100% 30.15 in
(1021 mb)
Calm - 10SM
05:50
Clear
50°F / 10°C 48°F / 9°C 94% 30.15 in
(1021 mb)
Calm - 10SM
05:30
Clear
Fog And Mist
48°F / 9°C 48°F / 9°C 100% 30.15 in
(1021 mb)
S 3.5 mph
(S 6 kph)
- 4SM
05:10
Partly Cloudy
Fog And Mist
50°F / 10°C 48°F / 9°C 94% 30.15 in
(1021 mb)
Calm - 2SM
04:50
Mostly Cloudy
Fog
48°F / 9°C 48°F / 9°C 100% 30.15 in
(1021 mb)
Calm - 1/4SM
03:30
Overcast
Fog
52°F / 11°C 50°F / 10°C 94% 30.12 in
(1020 mb)
S 3.5 mph
(S 6 kph)
0.01 in
(0.25 mm)
1/2SM
03:10
Overcast
Fog
52°F / 11°C 50°F / 10°C 94% 30.12 in
(1020 mb)
Calm - M1/4SM
02:50
Overcast
Fog
52°F / 11°C 50°F / 10°C 94% 30.12 in
(1020 mb)
Calm - 1/4SM
02:30
Overcast
Fog
52°F / 11°C 50°F / 10°C 94% 30.12 in
(1020 mb)
Calm - 1/4SM
02:10
Overcast
Fog
52°F / 11°C 52°F / 11°C 100% 30.12 in
(1020 mb)
Calm - 1/4SM
01:50
Overcast
Fog
54°F / 12°C 52°F / 11°C 94% 30.12 in
(1020 mb)
Calm - M1/4SM
01:30
Overcast
Fog
54°F / 12°C 52°F / 11°C 94% 30.12 in
(1020 mb)
Calm - M1/4SM
01:10
Overcast
Fog
54°F / 12°C 52°F / 11°C 94% 30.12 in
(1020 mb)
S 3.5 mph
(S 6 kph)
- 1/4SM
00:50
Overcast
Fog
54°F / 12°C 52°F / 11°C 94% 30.12 in
(1020 mb)
Calm - M1/4SM
00:30
Overcast
Fog
54°F / 12°C 54°F / 12°C 100% 30.12 in
(1020 mb)
Calm - M1/4SM
00:10
Overcast
Fog
54°F / 12°C 54°F / 12°C 100% 30.12 in
(1020 mb)
Calm - M1/4SM
Time Weather Temperature Dewpoint Humidity Pressure Winds Precip Visibility


Weather for websites

WeatherForYou.com, LLC is not responsible for any damages or problems caused by this service. Current weather conditions are obtained from the closest station including government and personal stations which may have varying degrees of accuracy. Weather forecasts are derived from the NOAA NDFD. Like all things, this site belongs to Jesus Christ... He just trusts us to maintain it. If you have any questions or comments email webmaster@weatherforyou.com

Copyright © 2016, WeatherForYou.com LLC. All rights reserved.